User: anonymous   Login
Location: Bonny Doon Airfield
(37.0704°N, 122.1252°W)
Time: 14:03:01
(UTC-07:00)
Language:

BREEZE M DEB (TANK) - Orbit

View from above orbital plane
View from above orbital plane
View from above satellite
View from above satellite

Ground track
Ground track

The orbit data is extracted from the following two-line orbital elements,

1 33437U 08057B   17113.76131781 +.00002372 +00000-0 +46139-3 0  9997
2 33437 049.5603 292.6223 5002237 036.0582 349.1629 05.60297615170797
Epoch (UTC): 23 April 2017 18:16:17
Eccentricity: 0.5002237
inclination: 49.5603°
perigee height: 314 km
apogee height: 13710 km
right ascension of ascending node: 292.6223°
argument of perigee: 36.0582°
revolutions per day: 5.60297615
mean anomaly at epoch: 349.1629°
orbit number at epoch: 17079

The dashed part of the orbit path shows where the satellite is in the earth's shadow,  

DLR